Mankato, MN

7:09 PM CDT on March 30, 2017 (GMT -0500)
Mankato Regional

Weather History for KMKT - May, 2009

Change the Weather History Date:

Tuesday, May 12, 2009

  Actual Average Record
Temperature  
Mean Temperature 61 °F -  
Max Temperature 71 °F 64 °F 73 °F (2004)
Min Temperature 51 °F 45 °F 30 °F (2013)
Degree Days  
Heating Degree Days 4    
Growing Degree Days 11 (Base 50)    
Moisture  
Dew Point 41 °F    
Average Humidity 48    
Maximum Humidity 68    
Minimum Humidity 38    
Precipitation  
Precipitation 0.00 in - - ()
Sea Level Pressure  
Sea Level Pressure 29.90 in    
Wind  
Wind Speed 17 mph (South)    
Max Wind Speed 32 mph    
Max Gust Speed 45 mph    
Visibility 10 miles    
Events      
Averages and records for this station are not official NWS values.
T = Trace of Precipitation, MM = Missing Value Source: NWS Daily Summary

Daily Weather History Graph

Daily Weather History Graph

Search for Another Location

Airport or City:

Trip Planner

Search our weather history database for the weather conditions in past years. The results will help you decide how hot, cold, wet, or windy it might be!

Date:

Astronomy

May. 12, 2009 Rise Set
Actual Time 5:52 AM CDT 8:32 PM CDT
Civil Twilight 5:18 AM CDT 9:06 PM CDT
Nautical Twilight 4:37 AM CDT 9:48 PM CDT
Astronomical Twilight 3:49 AM CDT 10:36 PM CDT
Moon No Moon Rise 7:58 AM CDT (5/12)
Length of Visible Light 15h 47m
Length of Day
14h 40m
Waning Gibbous, 88% of the Moon is Illuminated
May 12
Waning Gibbous
May 17
Last Quarter
May 24
New
May 30
First Quarter
Jun 7
Full

Hourly Weather History & Observations

Time (CDT) Temp. Dew Point Humidity Pressure Visibility Wind Dir Wind Speed Gust Speed Precip Events Conditions
12:15 AM 55.4 °F 35.6 °F 47% 30.04 in 10.0 mi South 15.0 mph 21.9 mph N/A   Clear
12:35 AM 55.4 °F 35.6 °F 47% 30.04 in 10.0 mi SSE 12.7 mph - N/A   Clear
12:55 AM 55.4 °F 33.8 °F 44% 30.04 in 10.0 mi South 10.4 mph - N/A   Clear
1:15 AM 55.4 °F 33.8 °F 44% 30.04 in 10.0 mi South 12.7 mph 19.6 mph N/A   Clear
1:35 AM 55.4 °F 33.8 °F 44% 30.04 in 10.0 mi South 13.8 mph 20.7 mph N/A   Clear
1:55 AM 55.4 °F 33.8 °F 44% 30.04 in 10.0 mi South 11.5 mph 19.6 mph N/A   Clear
2:15 AM 53.6 °F 35.6 °F 51% 30.03 in 10.0 mi South 12.7 mph 19.6 mph N/A   Clear
2:35 AM 53.6 °F 35.6 °F 51% 30.03 in 10.0 mi South 12.7 mph 19.6 mph N/A   Clear
2:55 AM 53.6 °F 35.6 °F 51% 30.02 in 10.0 mi SSE 12.7 mph - N/A   Clear
3:15 AM 51.8 °F 35.6 °F 54% 30.02 in 10.0 mi SSE 13.8 mph - N/A   Clear
3:35 AM 51.8 °F 35.6 °F 54% 30.02 in 10.0 mi South 11.5 mph 17.3 mph N/A   Clear
3:55 AM 51.8 °F 35.6 °F 54% 30.02 in 10.0 mi SSE 12.7 mph - N/A   Clear
4:15 AM 51.8 °F 35.6 °F 54% 30.02 in 10.0 mi SSE 11.5 mph - N/A   Scattered Clouds
4:35 AM 51.8 °F 35.6 °F 54% 30.01 in 10.0 mi South 12.7 mph - N/A   Mostly Cloudy
4:55 AM 53.6 °F 37.4 °F 54% 30.01 in 10.0 mi SSE 12.7 mph 17.3 mph N/A   Overcast
5:15 AM 53.6 °F 37.4 °F 54% 30.01 in 10.0 mi SSE 11.5 mph - N/A   Overcast
5:35 AM 53.6 °F 37.4 °F 54% 30.00 in 10.0 mi SSE 11.5 mph 17.3 mph N/A   Overcast
5:55 AM 53.6 °F 39.2 °F 58% 30.00 in 10.0 mi SSE 10.4 mph - N/A   Overcast
6:15 AM 53.6 °F 39.2 °F 58% 30.00 in 10.0 mi SSE 10.4 mph 16.1 mph N/A   Mostly Cloudy
6:35 AM 53.6 °F 39.2 °F 58% 30.01 in 10.0 mi South 11.5 mph 16.1 mph N/A   Mostly Cloudy
6:55 AM 55.4 °F 39.2 °F 54% 30.00 in 10.0 mi South 12.7 mph - N/A   Mostly Cloudy
7:15 AM 55.4 °F 39.2 °F 54% 30.00 in 10.0 mi South 13.8 mph 17.3 mph N/A   Mostly Cloudy
7:35 AM 55.4 °F 39.2 °F 54% 29.99 in 10.0 mi South 15.0 mph - N/A   Mostly Cloudy
7:55 AM 57.2 °F 39.2 °F 51% 29.99 in 10.0 mi South 13.8 mph 19.6 mph N/A   Scattered Clouds
8:35 AM 57.2 °F 41.0 °F 55% 29.97 in 10.0 mi South 15.0 mph 26.5 mph N/A   Mostly Cloudy
8:55 AM 60.8 °F 41.0 °F 48% 29.97 in 10.0 mi South 20.7 mph 29.9 mph N/A   Mostly Cloudy
9:15 AM 60.8 °F 41.0 °F 48% 29.97 in 10.0 mi South 21.9 mph 29.9 mph N/A   Mostly Cloudy
9:35 AM 62.6 °F 42.8 °F 48% 29.96 in 10.0 mi South 23.0 mph 28.8 mph N/A   Scattered Clouds
9:55 AM 62.6 °F 42.8 °F 48% 29.95 in 10.0 mi South 24.2 mph 28.8 mph N/A   Scattered Clouds
10:15 AM 64.4 °F 42.8 °F 45% 29.95 in 10.0 mi South 21.9 mph 29.9 mph N/A   Scattered Clouds
10:35 AM 64.4 °F 42.8 °F 45% 29.94 in 10.0 mi South 19.6 mph 33.4 mph N/A   Mostly Cloudy
10:55 AM 66.2 °F 44.6 °F 46% 29.93 in 10.0 mi South 24.2 mph 34.5 mph N/A   Scattered Clouds
11:15 AM 68.0 °F 44.6 °F 43% 29.92 in 10.0 mi South 25.3 mph 33.4 mph N/A   Mostly Cloudy
11:35 AM 66.2 °F 44.6 °F 46% 29.91 in 10.0 mi South 21.9 mph 32.2 mph N/A   Overcast
11:55 AM 68.0 °F 44.6 °F 43% 29.91 in 10.0 mi South 21.9 mph 38.0 mph N/A   Overcast
12:15 PM 68.0 °F 44.6 °F 43% 29.89 in 10.0 mi South 26.5 mph 35.7 mph N/A   Overcast
12:35 PM 68.0 °F 44.6 °F 43% 29.88 in 10.0 mi South 23.0 mph 35.7 mph N/A   Overcast
12:55 PM 68.0 °F 42.8 °F 40% 29.87 in 10.0 mi South 26.5 mph 34.5 mph N/A   Overcast
1:15 PM 68.0 °F 44.6 °F 43% 29.85 in 10.0 mi South 28.8 mph 38.0 mph N/A   Overcast
1:35 PM 69.8 °F 44.6 °F 40% 29.84 in 10.0 mi South 24.2 mph 36.8 mph N/A   Overcast
1:55 PM 69.8 °F 44.6 °F 40% 29.82 in 10.0 mi South 24.2 mph 33.4 mph N/A   Mostly Cloudy
2:15 PM 68.0 °F 44.6 °F 43% 29.81 in 10.0 mi South 23.0 mph 34.5 mph N/A   Scattered Clouds
2:35 PM 68.0 °F 44.6 °F 43% 29.79 in 10.0 mi South 24.2 mph 41.4 mph N/A   Partly Cloudy
2:55 PM 68.0 °F 44.6 °F 43% 29.76 in 10.0 mi South 28.8 mph 40.3 mph N/A   Clear
3:15 PM 69.8 °F 44.6 °F 40% 29.74 in 10.0 mi South 24.2 mph 38.0 mph N/A   Clear
3:35 PM 69.8 °F 44.6 °F 40% 29.73 in 10.0 mi South 21.9 mph 38.0 mph N/A   Clear
3:55 PM 69.8 °F 44.6 °F 40% 29.72 in 10.0 mi South 27.6 mph 39.1 mph N/A   Partly Cloudy
4:15 PM 69.8 °F 44.6 °F 40% 29.71 in 10.0 mi South 25.3 mph 34.5 mph N/A   Partly Cloudy
4:35 PM 71.6 °F 44.6 °F 38% 29.71 in 10.0 mi South 21.9 mph 40.3 mph N/A   Clear
4:55 PM 69.8 °F 44.6 °F 40% 29.69 in 10.0 mi South 27.6 mph 41.4 mph N/A   Partly Cloudy
5:15 PM 69.8 °F 44.6 °F 40% 29.68 in 10.0 mi South 31.1 mph 38.0 mph N/A   Clear
5:35 PM 69.8 °F 44.6 °F 40% 29.68 in 10.0 mi South 23.0 mph 44.9 mph N/A   Mostly Cloudy
5:55 PM 69.8 °F 46.4 °F 43% 29.66 in 10.0 mi South 23.0 mph 36.8 mph N/A   Mostly Cloudy
6:15 PM 69.8 °F 46.4 °F 43% 29.67 in 10.0 mi South 32.2 mph 42.6 mph N/A   Mostly Cloudy
6:35 PM 66.2 °F 48.2 °F 52% 29.71 in 10.0 mi SSW 29.9 mph 40.3 mph N/A   Mostly Cloudy
6:55 PM 64.4 °F 50.0 °F 59% 29.72 in 10.0 mi South 20.7 mph 40.3 mph N/A   Overcast
7:15 PM 62.6 °F 51.8 °F 68% 29.71 in 10.0 mi South 24.2 mph 28.8 mph N/A   Overcast
7:35 PM 62.6 °F 51.8 °F 68% 29.70 in 10.0 mi South 26.5 mph 38.0 mph N/A   Overcast
7:55 PM 62.6 °F 51.8 °F 68% 29.69 in 10.0 mi South 25.3 mph 35.7 mph N/A   Overcast
8:15 PM 60.8 °F 51.8 °F 72% 29.69 in 10.0 mi South 26.5 mph 34.5 mph N/A   Overcast
8:35 PM 60.8 °F 51.8 °F 72% 29.70 in 10.0 mi South 19.6 mph 33.4 mph N/A   Overcast
8:55 PM 60.8 °F 51.8 °F 72% 29.70 in 10.0 mi South 23.0 mph 29.9 mph N/A   Overcast
9:15 PM 59.0 °F 51.8 °F 77% 29.69 in 10.0 mi SSE 21.9 mph 33.4 mph N/A   Overcast
9:35 PM 59.0 °F 51.8 °F 77% 29.68 in 10.0 mi South 24.2 mph 34.5 mph N/A   Overcast
9:55 PM 59.0 °F 51.8 °F 77% 29.69 in 10.0 mi SSE 21.9 mph 29.9 mph N/A   Overcast
10:15 PM 59.0 °F 51.8 °F 77% 29.68 in 10.0 mi South 21.9 mph 32.2 mph N/A   Overcast
10:35 PM 59.0 °F 51.8 °F 77% 29.68 in 10.0 mi South 20.7 mph 28.8 mph N/A   Overcast
10:55 PM 59.0 °F 51.8 °F 77% 29.67 in 10.0 mi South 23.0 mph 31.1 mph N/A   Overcast
11:15 PM 59.0 °F 51.8 °F 77% 29.64 in 10.0 mi SSE 23.0 mph 33.4 mph N/A   Overcast
11:35 PM 57.2 °F 51.8 °F 82% 29.62 in 10.0 mi SSE 27.6 mph 35.7 mph N/A   Overcast
11:55 PM 57.2 °F 51.8 °F 82% 29.63 in 10.0 mi SSE 26.5 mph 32.2 mph N/A   Overcast